This is the latest recevied weather packets stored in our database for station/object K7FRY. If no packets are shown the sender has not sent any weather packets the latest 10 day(s).
| Time | Temp. | Humidity | Pressure | Rain* | Wind** | Luminosity | Snow |
|---|---|---|---|---|---|---|---|
| 1777979563 | 13.89° C | 99% | 1013.5 hPa | 1.27 mm | - | 0 W/m² | - |
| 1777979259 | 13.89° C | 99% | 1012.9 hPa | 1.27 mm | - | 0 W/m² | - |
| 1777978957 | 13.89° C | 99% | 1013.4 hPa | 0 mm | - | 0 W/m² | - |
| 1777978653 | 13.89° C | 99% | 1013.4 hPa | 0 mm | - | 0 W/m² | - |
| 1777978348 | 13.89° C | 99% | 1013.2 hPa | 0 mm | - | 0 W/m² | - |
| 1777978046 | 13.89° C | 99% | 1013.2 hPa | 0 mm | - | 0 W/m² | - |
| 1777977743 | 13.89° C | 99% | 1013.5 hPa | 0 mm | - | 0 W/m² | - |
| 1777977439 | 14.44° C | 99% | 1013.6 hPa | 1.78 mm | - | 0 W/m² | - |
| 1777977137 | 13.89° C | 99% | 1013.6 hPa | 1.78 mm | - | 0 W/m² | - |
| 1777976834 | 14.44° C | 99% | 1013.8 hPa | 0 mm | - | 0 W/m² | - |
| 1777976532 | 14.44° C | 99% | 1013.5 hPa | 0 mm | - | 0 W/m² | - |
| 1777976231 | 14.44° C | 99% | 1013.6 hPa | 0 mm | - | 0 W/m² | - |
| 1777975926 | 14.44° C | 99% | 1013.7 hPa | 0 mm | - | 0 W/m² | - |
| 1777975623 | 14.44° C | 99% | 1013.7 hPa | 0 mm | - | 0 W/m² | - |
| 1777975320 | 13.89° C | 99% | 1013.5 hPa | 0 mm | - | 0 W/m² | - |
| 1777975015 | 14.44° C | 99% | 1013.7 hPa | 0 mm | - | 0 W/m² | - |
| 1777974714 | 13.89° C | 99% | 1013.7 hPa | 1.27 mm | - | 0 W/m² | - |
| 1777974409 | 14.44° C | 99% | 1013.7 hPa | 1.27 mm | - | 0 W/m² | - |
| 1777974106 | 14.44° C | 99% | 1013.9 hPa | 1.78 mm | - | 0 W/m² | - |
| 1777973802 | 14.44° C | 99% | 1014 hPa | 3.56 mm | - | 0 W/m² | - |
| 1777973500 | 14.44° C | 99% | 1013.6 hPa | 3.05 mm | - | 0 W/m² | - |
| 1777973196 | 14.44° C | 99% | 1013.9 hPa | 3.05 mm | - | 0 W/m² | - |
| 1777972895 | 14.44° C | 99% | 1014.5 hPa | 1.27 mm | - | 0 W/m² | - |
| 1777972592 | 14.44° C | 99% | 1014.2 hPa | 1.78 mm | - | 0 W/m² | - |
| 1777972290 | 14.44° C | 99% | 1014.8 hPa | 0 mm | - | 0 W/m² | - |
* Rain latest hour (hover to see other rain measurements)
** Current wind speed in m/s (hover to see current wind gust speed)